• In Hungary
  • List of Countries
  • For 7 days
  • Water Temperature
  • Satellite Maps
  • Weather Map
  • News
  • Weather Widgets
  • user-avatar
    Login

    Hourly Weather Jambol

    Today, 19 December, Tuesday

    Time Temperature Precipitation Wind Pressure Humidity
    00:00 +1°C° 0.8 mm 4 mps 753 mmHg 86%
    01:00 0°C° 0.8 mm 4 mps 753 mmHg 87%
    02:00 0°C° 0.8 mm 4 mps 753 mmHg 88%
    03:00 0°C° 0.9 mm 4 mps 753 mmHg 88%
    04:00 -1°C° 0.9 mm 4 mps 753 mmHg 88%
    05:00 -1°C° 0.9 mm 4 mps 754 mmHg 89%
    06:00 -1°C° 0.7 mm 4 mps 754 mmHg 89%
    07:00 -1°C° 0.7 mm 4 mps 755 mmHg 90%
    08:00 -1°C° 0.7 mm 3 mps 755 mmHg 91%
    09:00 0°C° 0.5 mm 3 mps 756 mmHg 90%
    10:00 0°C° 0.5 mm 3 mps 756 mmHg 90%
    11:00 0°C° 0.5 mm 3 mps 757 mmHg 90%
    12:00 0°C° 0.3 mm 3 mps 757 mmHg 89%
    13:00 +2°C° 0.3 mm 2 mps 757 mmHg 89%
    14:00 +2°C° 0.3 mm 2 mps 758 mmHg 89%
    15:00 +1°C° 0.1 mm 2 mps 758 mmHg 89%
    16:00 +2°C° 0.1 mm 1 mps 758 mmHg 90%
    17:00 +2°C° 0.1 mm 1 mps 759 mmHg 90%
    18:00 +1°C° 0 mm 1 mps 759 mmHg 90%
    19:00 +1°C° 0 mm 1 mps 759 mmHg 90%
    20:00 0°C° 0 mm 1 mps 759 mmHg 90%
    21:00 0°C° 0.1 mm 1 mps 759 mmHg 90%
    22:00 0°C° 0.1 mm 1 mps 759 mmHg 90%
    23:00 0°C° 0.1 mm 1 mps 759 mmHg 90%

    Tomorrow, 20 December, Wednesday

    Time Temperature Precipitation Wind Pressure Humidity
    00:00 0°C° 0 mm 1 mps 760 mmHg 89%
    01:00 -1°C° 0 mm 1 mps 760 mmHg 88%
    02:00 -1°C° 0 mm 1 mps 760 mmHg 88%
    03:00 -1°C° 0 mm 1 mps 760 mmHg 87%
    04:00 -1°C° 0 mm 1 mps 760 mmHg 86%
    05:00 -2°C° 0 mm 1 mps 760 mmHg 86%
    06:00 -2°C° 0 mm 1 mps 760 mmHg 85%
    07:00 -2°C° 0 mm 1 mps 760 mmHg 84%
    08:00 -2°C° 0 mm 1 mps 760 mmHg 84%
    09:00 -1°C° 0 mm 1 mps 761 mmHg 81%
    10:00 0°C° 0 mm 1 mps 761 mmHg 78%
    11:00 +2°C° 0 mm 1 mps 761 mmHg 75%
    12:00 +2°C° 0 mm 1 mps 761 mmHg 75%
    13:00 +2°C° 0 mm 1 mps 761 mmHg 75%
    14:00 +3°C° 0 mm 1 mps 760 mmHg 76%
    15:00 +2°C° 0 mm 1 mps 760 mmHg 78%
    16:00 +1°C° 0 mm 1 mps 760 mmHg 81%
    17:00 0°C° 0 mm 1 mps 760 mmHg 83%
    18:00 -1°C° 0 mm 1 mps 761 mmHg 83%
    19:00 -1°C° 0 mm 1 mps 761 mmHg 83%
    20:00 -1°C° 0 mm 1 mps 761 mmHg 84%
    21:00 -1°C° 0 mm 1 mps 761 mmHg 84%
    22:00 -1°C° 0 mm 1 mps 761 mmHg 83%
    23:00 -2°C° 0 mm 1 mps 762 mmHg 83%

    Day after tomorrow, 21 December, Thursday

    Time Temperature Precipitation Wind Pressure Humidity
    00:00 -2°C° 0 mm 1 mps 761 mmHg 83%
    01:00 -2°C° 0 mm 1 mps 761 mmHg 83%
    02:00 -2°C° 0 mm 1 mps 761 mmHg 83%
    03:00 -2°C° 0 mm 1 mps 761 mmHg 82%
    04:00 -2°C° 0 mm 1 mps 761 mmHg 82%
    05:00 -2°C° 0 mm 1 mps 761 mmHg 82%
    06:00 -2°C° 0 mm 1 mps 761 mmHg 81%
    07:00 -2°C° 0 mm 1 mps 761 mmHg 81%
    08:00 -2°C° 0 mm 1 mps 762 mmHg 80%
    09:00 -1°C° 0 mm 1 mps 761 mmHg 78%
    10:00 +1°C° 0 mm 1 mps 761 mmHg 75%
    11:00 +2°C° 0 mm 1 mps 761 mmHg 72%
    12:00 +2°C° 0 mm 1 mps 761 mmHg 72%
    13:00 +3°C° 0 mm 1 mps 761 mmHg 73%
    14:00 +3°C° 0 mm 1 mps 761 mmHg 73%
    15:00 +2°C° 0 mm 1 mps 760 mmHg 76%
    16:00 +1°C° 0 mm 1 mps 760 mmHg 79%
    17:00 0°C° 0 mm 1 mps 760 mmHg 82%
    18:00 0°C° 0 mm 1 mps 760 mmHg 83%
    19:00 -2°C° 0 mm 2 mps 760 mmHg 83%
    20:00 -2°C° 0 mm 2 mps 760 mmHg 83%
    21:00 -2°C° 0 mm 2 mps 760 mmHg 83%
    22:00 -2°C° 0 mm 2 mps 760 mmHg 83%
    23:00 -3°C° 0 mm 2 mps 760 mmHg 84%

    22 December, Friday

    Time Temperature Precipitation Wind Pressure Humidity
    00:00 -3°C° 0 mm 2 mps 760 mmHg 83%
    01:00 -3°C° 0 mm 2 mps 759 mmHg 83%
    02:00 -4°C° 0 mm 2 mps 759 mmHg 82%
    03:00 -2°C° 0 mm 1 mps 759 mmHg 81%
    04:00 -2°C° 0 mm 1 mps 758 mmHg 80%
    05:00 -2°C° 0 mm 1 mps 758 mmHg 80%
    06:00 -2°C° 0 mm 1 mps 758 mmHg 79%
    07:00 -2°C° 0 mm 1 mps 758 mmHg 78%
    08:00 -2°C° 0 mm 1 mps 758 mmHg 77%
    09:00 -1°C° 0 mm 1 mps 758 mmHg 73%
    10:00 +1°C° 0 mm 1 mps 758 mmHg 69%
    11:00 +2°C° 0 mm 1 mps 758 mmHg 65%
    12:00 +3°C° 0 mm 1 mps 757 mmHg 65%
    13:00 +3°C° 0 mm 1 mps 757 mmHg 65%
    14:00 +4°C° 0 mm 1 mps 756 mmHg 64%
    15:00 +3°C° 0 mm 1 mps 756 mmHg 67%
    16:00 +1°C° 0 mm 1 mps 756 mmHg 69%
    17:00 0°C° 0 mm 1 mps 755 mmHg 72%
    18:00 0°C° 0 mm 1 mps 755 mmHg 71%
    19:00 0°C° 0 mm 1 mps 755 mmHg 71%
    20:00 0°C° 0 mm 1 mps 755 mmHg 71%
    21:00 0°C° 0 mm 1 mps 754 mmHg 72%
    22:00 0°C° 0 mm 1 mps 754 mmHg 72%
    23:00 0°C° 0 mm 1 mps 754 mmHg 73%

    23 December, Saturday

    Time Temperature Precipitation Wind Pressure Humidity
    00:00 0°C° 0 mm 1 mps 753 mmHg 74%
    01:00 0°C° 0 mm 1 mps 752 mmHg 75%
    02:00 0°C° 0 mm 1 mps 752 mmHg 76%
    03:00 -2°C° 0 mm 2 mps 751 mmHg 78%
    04:00 -2°C° 0 mm 2 mps 750 mmHg 79%
    05:00 -1°C° 0 mm 2 mps 749 mmHg 81%
    06:00 -1°C° 0 mm 2 mps 749 mmHg 82%
    07:00 -1°C° 0 mm 2 mps 749 mmHg 83%
    08:00 -1°C° 0 mm 2 mps 749 mmHg 84%
    09:00 0°C° 0 mm 3 mps 748 mmHg 82%
    10:00 +1°C° 0 mm 3 mps 748 mmHg 80%
    11:00 +1°C° 0 mm 4 mps 747 mmHg 78%
    12:00 +1°C° 0 mm 4 mps 747 mmHg 79%
    13:00 +1°C° 0 mm 4 mps 747 mmHg 79%
    14:00 +1°C° 0 mm 5 mps 746 mmHg 79%
    15:00 0°C° 0 mm 5 mps 747 mmHg 81%
    16:00 0°C° 0 mm 4 mps 747 mmHg 82%
    17:00 -1°C° 0 mm 4 mps 747 mmHg 84%
    18:00 -1°C° 0 mm 4 mps 748 mmHg 85%
    19:00 -2°C° 0 mm 4 mps 748 mmHg 85%
    20:00 -2°C° 0 mm 4 mps 749 mmHg 85%
    21:00 -2°C° 0 mm 4 mps 749 mmHg 86%
    22:00 -1°C° 0 mm 3 mps 750 mmHg 87%
    23:00 -2°C° 0 mm 3 mps 750 mmHg 87%

    24 December, Sunday

    Time Temperature Precipitation Wind Pressure Humidity
    00:00 -3°C° 0.1 mm 4 mps 751 mmHg 87%
    01:00 -3°C° 0.1 mm 4 mps 751 mmHg 87%
    02:00 -2°C° 0.1 mm 4 mps 752 mmHg 87%
    03:00 -3°C° 0 mm 4 mps 752 mmHg 86%
    04:00 -3°C° 0 mm 4 mps 753 mmHg 85%
    05:00 -4°C° 0 mm 5 mps 753 mmHg 84%
    06:00 -3°C° 0 mm 4 mps 754 mmHg 84%
    07:00 -3°C° 0 mm 4 mps 755 mmHg 84%
    08:00 -4°C° 0 mm 4 mps 756 mmHg 84%
    09:00 -3°C° 0 mm 4 mps 756 mmHg 80%
    10:00 -2°C° 0 mm 4 mps 757 mmHg 77%
    11:00 -1°C° 0 mm 5 mps 757 mmHg 73%
    12:00 -1°C° 0 mm 4 mps 757 mmHg 72%
    13:00 -1°C° 0 mm 4 mps 758 mmHg 71%
    14:00 0°C° 0 mm 4 mps 758 mmHg 70%
    15:00 0°C° 0 mm 3 mps 758 mmHg 73%
    16:00 -1°C° 0 mm 2 mps 758 mmHg 77%
    17:00 +1°C° 0 mm 1 mps 758 mmHg 81%
    18:00 0°C° 0 mm 1 mps 759 mmHg 81%
    19:00 0°C° 0 mm 1 mps 759 mmHg 82%
    20:00 0°C° 0 mm 1 mps 760 mmHg 82%
    21:00 -1°C° 0 mm 1 mps 760 mmHg 82%
    22:00 -1°C° 0 mm 1 mps 760 mmHg 82%
    23:00 -3°C° 0 mm 2 mps 761 mmHg 82%
    Show more